GEFSNE_500_meanwind_060.txt.gz
Wind_Speed
31 31 32 32 32 33 33 34 34 34 35 35 35 34 34 34 33 34 34 33 32 32 32 31 30 29 29 28 28 28 28 28 29 30 30 30 31 32
30 30 31 31 31 31 34 34 34 35 35 36 37 36 36 36 35 34 34 34 34 33 31 31 30 29 28 28 28 28 29 29 29 30 30 30 31 32
28 29 30 30 31 31 32 32 33 33 34 35 35 36 34 34 35 35 34 35 35 34 32 30 29 28 27 27 27 28 29 29 29 30 31 31 32 32
28 29 30 30 31 31 31 32 32 32 32 32 32 32 32 32 32 32 33 33 33 32 30 28 28 27 27 27 27 28 28 29 30 30 31 31 32 32
27 27 28 28 29 30 30 30 30 29 29 29 29 30 30 31 31 31 31 30 30 28 26 26 26 25 26 27 27 28 28 29 30 30 31 32 32 32
24 24 24 23 24 25 25 26 27 27 28 28 28 27 27 27 27 26 25 24 24 23 22 23 23 24 25 26 27 28 29 29 30 31 31 32 33 32
19 20 20 21 22 22 22 22 23 24 24 24 25 24 24 23 21 21 20 20 19 19 19 21 22 23 25 26 26 27 28 28 29 30 31 31 32 32
17 17 17 17 19 19 19 18 17 17 16 17 18 18 18 17 16 16 16 15 16 17 19 20 21 22 23 23 24 25 26 26 27 28 28 29 29 30
14 15 14 14 14 15 15 15 15 14 13 13 13 13 13 13 13 13 13 14 15 16 17 18 19 20 21 22 23 24 25 25 27 27 27 28 28 29
12 12 12 12 12 12 13 12 12 13 12 12 13 12 12 11 11 12 13 13 14 15 17 18 19 19 20 20 21 22 23 24 25 25 25 25 26 26
9 9 9 10 10 10 11 11 11 11 11 10 10 10 9 9 10 11 12 13 14 15 16 16 16 17 17 18 19 19 20 21 21 21 21 21 21 22
7 8 8 8 9 10 10 10 9 9 9 9 9 9 9 9 9 10 10 11 12 12 13 13 14 14 15 15 16 16 17 17 17 17 17 18 18 18
6 7 7 8 8 9 9 9 8 8 8 8 8 8 8 8 8 8 8 9 10 10 10 11 11 11 11 12 12 13 14 14 14 14 14 15 15 16
5 6 6 7 7 8 8 8 7 7 6 6 7 6 6 6 6 5 5 6 6 6 6 6 7 7 8 8 9 10 11 11 11 11 11 12 13 13
6 6 6 7 7 7 7 6 6 6 6 5 5 5 5 5 4 3 2 2 2 2 3 3 4 4 5 6 7 8 9 9 9 9 10 10 11 11
8 8 8 7 7 7 6 5 5 5 5 5 5 4 4 4 3 2 1 0 0 1 1 2 3 4 4 6 7 8 9 9 9 10 10 11 11 12
10 9 9 8 8 7 6 6 6 6 5 5 5 4 4 4 4 3 2 2 2 1 2 3 4 4 5 7 7 8 9 10 10 10 11 12 13 13
13 12 11 10 10 9 8 8 7 6 6 6 6 5 5 5 5 4 4 3 3 2 3 3 4 5 6 7 8 9 9 10 11 12 12 13 13 14
14 13 12 11 11 10 9 9 8 8 7 7 7 7 6 6 5 4 4 3 3 3 3 4 4 5 6 7 8 9 10 11 11 12 13 13 14 15
15 14 13 13 12 11 11 10 9 9 9 8 8 7 6 6 5 4 4 4 3 3 4 4 5 5 6 7 8 9 10 11 12 12 13 14 15 15
14 14 13 13 12 11 11 11 10 10 9 8 7 7 6 6 5 5 4 4 4 4 4 4 5 5 6 7 8 9 10 11 12 12 13 14 15 15
13 13 12 12 11 11 10 10 9 9 8 8 7 7 7 6 5 5 4 4 3 3 4 4 5 5 7 8 9 10 10 11 12 13 14 15 16 16
12 12 12 11 11 10 9 9 9 8 8 7 7 6 5 5 4 3 3 3 3 4 4 4 5 6 7 8 9 10 11 11 12 13 14 15 16 17

GEFSNE_500_meanwind_066.txt.gz
Wind_Speed
28 28 28 28 27 27 28 29 29 30 30 31 31 31 31 31 31 31 32 32 32 32 33 33 33 34 34 35 35 35 35 35 35 34 34 33 33 33
28 28 28 28 27 29 30 30 30 31 31 30 30 31 31 31 32 32 32 31 32 33 33 34 34 34 35 35 36 36 36 36 35 35 33 33 33 33
26 27 27 28 28 30 29 29 30 30 30 30 30 30 31 32 32 32 32 32 33 34 34 34 34 35 35 36 36 36 36 35 34 33 32 33 33 32
25 26 26 26 27 28 29 29 29 28 29 30 29 29 30 30 30 30 30 31 32 33 33 33 33 33 35 35 34 33 32 31 30 30 30 31 31 31
23 24 25 25 25 26 27 27 27 27 27 28 29 29 28 28 28 28 27 27 28 29 30 30 31 32 32 31 30 28 28 28 28 28 29 30 30 31
22 22 22 23 23 24 25 25 25 26 26 26 26 27 26 26 26 26 25 24 25 25 25 26 26 26 26 26 25 25 25 26 26 27 28 29 29 30
20 20 21 21 22 22 22 23 24 24 23 23 22 22 23 23 22 23 23 23 22 21 21 21 21 21 21 22 23 23 23 23 24 25 26 27 28 28
17 18 19 20 20 20 20 20 20 20 20 19 19 18 18 19 19 19 19 20 20 18 18 17 16 16 17 18 19 19 20 21 22 24 24 25 26 26
13 15 16 16 16 16 16 17 17 16 16 15 15 15 15 15 16 17 16 15 15 14 14 13 14 15 15 16 16 17 18 20 21 22 23 23 23 23
11 12 12 13 13 13 13 13 14 14 14 14 14 13 13 14 14 14 12 11 11 10 10 10 12 12 13 13 14 15 16 17 18 19 19 20 20 20
7 9 9 10 10 10 10 11 12 12 13 12 12 11 10 10 10 9 9 8 8 7 7 8 9 10 11 11 12 13 13 14 14 15 16 16 17 17
4 6 7 8 7 7 8 8 8 9 10 11 10 9 8 8 7 7 7 6 6 6 6 7 7 8 9 10 10 10 10 11 12 13 13 14 14 14
3 5 7 7 7 6 7 6 6 7 7 7 7 7 6 6 6 5 5 5 5 5 5 5 6 6 7 7 7 7 8 10 11 12 12 12 12 13
5 7 7 7 6 6 5 5 5 6 6 6 6 5 5 5 4 4 4 4 4 3 3 3 4 5 5 5 6 6 7 9 10 11 11 11 12 13
7 8 8 7 6 5 5 4 4 5 5 5 5 5 4 4 3 4 4 3 3 2 2 3 3 4 4 5 6 6 7 8 9 10 11 12 12 12
10 9 9 8 8 7 6 6 5 5 5 4 5 4 3 3 3 3 3 2 1 1 1 1 2 3 4 5 6 7 7 8 9 10 10 11 11 12
12 11 10 9 9 8 7 7 6 5 5 5 4 4 3 3 3 2 2 2 1 1 1 1 2 3 4 5 5 6 7 8 9 9 10 11 11 12
13 12 11 10 10 9 8 7 7 6 5 5 4 4 4 3 3 3 2 2 1 1 1 1 2 3 4 5 5 6 7 8 9 9 10 11 12 13
14 13 12 11 10 9 9 8 7 6 5 5 5 5 4 4 3 3 3 2 1 1 1 2 2 3 4 4 5 6 7 8 9 10 10 11 12 13
14 14 13 12 11 10 10 9 9 8 7 6 6 5 5 5 4 3 3 2 2 2 2 2 2 3 4 5 6 6 7 8 9 10 10 11 12 12
13 12 11 11 10 9 9 9 8 8 7 7 6 6 5 4 4 3 2 2 1 1 1 2 3 4 4 5 6 7 7 8 9 10 10 11 12 13
11 10 10 9 9 9 8 8 7 7 6 6 5 4 4 3 3 2 1 1 1 2 2 3 4 4 5 6 6 7 8 8 9 10 11 11 12 13
10 9 9 8 8 7 7 6 6 6 5 5 4 3 3 2 1 1 1 2 2 3 3 4 5 6 6 6 7 7 8 8 9 10 11 12 13 14

GEFSNE_500_meanwind_072.txt.gz
Wind_Speed
35 35 35 34 34 33 33 33 34 34 35 34 33 33 31 30 30 29 29 28 28 29 29 29 29 29 29 30 30 31 31 32 32 33 33 34 34 34
36 36 35 34 33 32 32 32 33 34 35 35 34 34 33 32 31 31 30 31 30 30 31 31 31 31 30 31 32 32 32 32 32 33 34 35 35 35
33 33 32 31 31 31 31 31 32 33 33 34 34 34 33 32 32 31 31 31 30 30 30 31 32 31 31 32 32 32 32 32 32 33 33 33 34 34
30 30 30 29 29 30 30 30 30 31 32 32 33 33 33 33 32 31 31 31 31 30 30 31 32 31 31 31 32 32 32 33 32 32 31 31 32 32
26 27 28 28 28 28 29 29 29 30 31 31 30 30 30 31 30 30 30 30 29 28 28 29 29 30 30 30 30 31 32 31 31 31 31 30 30 29
23 24 25 26 27 27 27 27 27 28 28 29 29 28 27 27 28 27 27 27 26 25 25 26 26 27 28 28 28 29 30 29 28 29 29 28 27 27
19 21 22 23 24 25 25 24 24 25 25 25 26 25 25 25 25 26 25 24 25 24 24 24 24 24 25 25 26 26 26 26 26 26 26 25 25 25
16 18 19 20 21 21 20 20 20 21 21 22 23 23 23 22 23 23 23 22 23 22 22 21 21 21 21 22 22 21 21 22 22 21 21 21 20 20
14 16 17 17 17 17 18 18 18 19 19 19 19 20 20 20 20 20 20 19 19 19 19 19 19 18 19 19 18 17 17 17 18 18 17 17 17 17
11 13 14 15 15 15 16 15 16 17 18 18 18 18 19 19 18 17 17 17 17 17 17 17 17 16 15 14 14 14 14 14 14 13 13 13 13 14
8 10 11 12 12 13 14 14 14 15 16 16 15 15 15 15 15 15 15 15 15 14 14 14 13 12 11 10 10 10 10 10 10 10 10 11 12 12
7 8 10 10 10 11 12 12 12 13 13 13 13 13 13 13 14 14 14 14 14 14 13 12 10 9 9 8 8 7 7 7 7 8 8 9 11 11
6 7 9 9 9 9 10 10 10 11 11 11 11 11 11 11 12 13 13 13 13 12 11 10 9 8 7 7 6 5 5 5 6 6 7 8 9 10
8 8 9 8 8 8 9 9 9 9 10 10 10 10 10 9 9 10 11 11 11 11 10 9 8 7 6 5 4 4 4 4 5 6 7 8 9 9
9 10 10 10 9 9 9 9 9 9 10 9 9 9 9 9 9 9 9 9 10 9 8 8 7 6 5 4 4 3 3 4 5 5 6 7 8 8
10 10 10 10 9 8 8 8 9 9 9 9 9 9 8 8 8 8 8 8 7 7 7 7 6 5 4 4 4 4 4 4 5 5 6 7 7 8
11 11 11 10 10 10 9 8 8 8 8 9 8 8 7 7 7 7 7 7 7 6 6 5 5 5 4 4 4 4 4 4 5 5 6 6 6 7
12 11 10 10 9 9 8 8 8 8 8 7 7 7 7 6 6 7 7 6 6 6 5 5 5 4 4 4 4 4 4 4 5 5 5 6 6 7
11 10 9 9 8 8 7 7 7 7 7 6 6 6 6 6 6 6 6 6 6 5 5 5 4 4 4 4 4 4 5 5 5 5 6 6 7 8
9 9 9 8 8 7 7 7 6 6 5 5 5 5 5 5 6 6 5 5 5 4 4 4 4 4 4 4 4 5 5 5 5 6 7 8 9 9
8 7 7 7 7 6 6 6 5 5 4 4 4 4 5 5 5 5 4 4 4 4 4 4 4 4 4 5 5 5 6 6 7 8 9 9 10 10
6 5 5 5 4 4 4 4 4 4 3 3 3 3 4 4 5 5 4 4 4 4 4 4 5 5 5 6 6 7 8 8 9 10 10 11 11 12
3 3 3 3 2 2 2 2 2 2 2 2 3 3 4 4 4 4 4 4 5 5 5 6 6 6 7 7 8 9 9 10 11 11 12 12 13 13

GEFSNE_500_meanwind_078.txt.gz
Wind_Speed
42 42 41 40 39 39 38 37 37 35 35 33 33 33 33 33 32 31 30 30 29 28 28 27 27 26 26 26 27 27 27 27 28 28 28 29 30 31
38 39 40 39 39 39 40 38 37 36 36 35 35 34 34 35 34 33 32 30 30 30 29 28 28 28 28 27 27 28 28 29 29 30 30 31 31 32
34 36 37 38 38 37 37 36 36 36 35 34 34 35 34 35 35 34 33 32 31 31 31 30 29 29 29 29 28 28 29 29 30 30 31 31 32 32
32 33 34 36 37 36 35 34 35 35 34 34 33 34 34 34 34 34 34 33 34 33 32 31 30 29 29 29 28 27 28 29 30 30 31 31 31 30
28 30 32 33 34 34 35 35 35 35 34 34 34 34 33 34 35 34 34 34 34 33 32 30 29 28 28 28 28 29 29 29 29 30 31 30 30 30
25 28 29 30 31 32 32 33 33 33 32 32 32 32 32 32 33 34 33 33 32 31 31 29 28 28 27 28 28 28 29 29 29 29 28 28 28 27
22 24 25 27 27 28 29 30 30 29 29 29 29 29 30 30 31 31 30 30 29 28 28 28 28 27 27 26 26 26 26 27 26 25 24 24 23 22
18 20 22 23 24 24 24 26 26 27 27 27 27 27 26 26 27 28 28 28 27 26 25 25 24 24 23 23 22 22 23 22 22 22 21 20 19 18
14 16 18 20 21 22 22 23 24 24 24 24 24 24 24 25 26 25 25 24 24 23 22 22 22 21 20 20 20 20 19 18 18 17 17 17 16 15
10 12 14 15 17 19 19 19 20 21 21 21 21 21 22 22 22 22 22 22 22 21 21 20 19 19 18 18 18 17 16 16 16 15 14 13 13 12
8 10 12 13 13 14 15 15 16 17 18 18 19 19 19 19 19 20 20 20 20 20 19 19 18 17 17 17 16 15 14 13 12 11 11 11 10 10
5 7 9 11 12 13 13 13 13 13 13 14 15 16 16 16 17 17 17 18 18 17 17 17 16 16 15 15 14 13 12 10 10 9 9 9 8 8
4 6 7 8 9 10 11 11 11 12 11 12 12 13 13 14 14 15 15 15 15 15 14 14 14 14 13 13 12 11 10 8 8 8 8 8 7 7
4 4 5 6 7 8 9 10 10 10 10 10 11 11 12 12 12 12 13 13 13 13 13 12 11 11 11 10 10 9 9 8 8 8 7 7 6 6
5 5 4 6 7 7 8 8 8 8 9 9 10 10 11 10 11 11 12 11 11 11 11 11 10 10 9 9 8 8 8 8 8 7 7 6 6 7
8 7 6 6 6 6 7 7 7 8 8 8 8 9 9 10 10 10 11 10 10 10 10 10 10 9 9 8 8 8 7 7 6 6 6 6 6 6
9 8 7 6 6 6 6 6 7 7 7 7 7 8 9 9 10 10 10 10 10 9 9 9 9 9 9 8 8 8 7 7 6 7 7 7 7 7
8 8 7 7 6 6 6 6 6 6 6 6 7 7 7 8 8 8 9 9 9 9 9 9 9 9 8 8 8 8 7 7 7 7 8 8 8 8
6 6 5 5 5 5 5 5 5 5 5 6 6 6 6 7 7 7 7 8 8 8 8 8 8 8 8 8 8 8 8 8 8 8 9 9 9 9
5 4 4 4 3 3 3 3 4 4 4 5 6 7 7 7 7 7 7 8 8 8 8 8 8 9 9 9 9 9 9 9 9 9 9 10 10 10
2 1 1 1 1 1 1 2 3 3 4 5 6 6 7 7 7 8 8 8 8 8 9 9 9 10 10 10 10 10 10 10 10 10 10 11 11 11
3 3 2 2 2 2 3 3 3 4 5 5 5 6 7 7 8 8 8 8 8 9 9 9 9 10 10 10 10 10 11 11 12 12 12 12 13 13
6 5 5 5 5 5 5 5 5 5 5 5 5 6 7 8 8 9 9 9 9 9 9 9 9 10 10 10 11 11 12 12 13 13 14 14 14 15

GEFSNE_500_meanwind_084.txt.gz
Wind_Speed
37 39 40 40 40 41 39 37 36 36 36 36 34 34 35 34 33 33 32 31 31 30 29 28 28 27 27 27 26 26 27 27 26 26 26 27 28 28
33 36 38 39 39 40 40 38 38 37 37 36 35 35 35 34 33 33 33 32 32 31 30 30 30 29 29 29 29 29 28 27 27 27 26 27 28 28
30 33 36 37 38 38 39 39 39 38 37 36 35 34 34 33 33 33 33 33 33 33 33 32 32 31 31 31 30 29 29 28 28 28 28 28 28 28
28 30 33 35 37 37 38 38 38 38 36 35 35 35 35 34 33 34 34 34 34 34 33 33 32 31 31 31 31 30 30 29 29 29 28 28 28 28
25 27 30 33 34 35 35 36 36 36 36 35 35 35 35 35 35 34 34 33 34 33 33 33 33 32 32 32 31 30 29 29 29 29 29 28 27 27
23 24 26 28 31 32 33 33 35 35 35 34 34 34 35 35 34 34 34 34 33 34 34 34 34 33 33 32 31 30 29 29 28 28 27 27 27 26
20 22 23 24 27 28 30 31 32 33 33 33 32 31 32 33 33 33 33 33 32 32 34 35 34 33 32 31 31 30 30 29 28 27 26 25 24 23
17 19 21 22 23 25 28 28 29 30 32 32 32 30 30 31 31 31 31 31 32 32 33 33 32 31 31 31 30 30 29 28 27 26 24 22 20 19
13 16 18 19 20 21 24 25 25 26 28 29 28 28 28 28 29 30 29 29 30 30 31 31 29 28 29 29 28 28 27 26 24 22 21 19 18 16
10 13 15 17 18 19 20 23 23 23 24 25 26 27 27 27 28 28 28 27 28 29 28 27 26 26 27 26 25 24 23 21 20 19 18 17 16 15
7 9 11 13 15 17 18 19 20 21 22 22 23 25 25 25 24 25 24 24 25 25 24 23 23 22 22 22 21 21 21 19 18 17 16 15 15 14
2 6 8 10 13 14 16 17 18 19 20 20 20 22 23 23 22 22 22 22 23 22 22 22 21 20 19 19 19 19 18 17 17 16 15 15 14 14
1 2 5 7 9 12 13 14 15 16 17 18 18 19 19 19 20 21 21 21 21 21 21 20 19 18 19 18 18 17 17 16 15 15 15 14 14 13
3 1 3 5 7 9 10 11 13 14 14 16 17 18 18 18 18 18 19 18 18 19 19 18 18 18 18 18 18 18 16 15 14 14 14 14 13 13
5 2 1 4 6 8 8 9 11 12 12 14 15 15 16 16 17 17 18 18 18 18 18 18 18 19 18 18 18 17 16 15 15 14 14 13 13 12
5 3 1 2 4 6 8 8 9 10 11 12 13 13 14 15 16 16 17 17 17 17 17 18 18 17 17 17 17 16 16 15 15 14 14 14 13 13
5 3 2 1 2 4 6 7 8 9 9 10 11 12 13 14 15 15 15 15 15 16 16 16 16 16 16 16 16 16 16 15 15 15 15 14 14 14
5 4 2 1 2 3 5 6 8 9 9 9 10 11 12 14 14 14 15 15 16 16 16 16 17 17 16 16 15 15 15 15 15 15 15 15 14 14
5 4 3 1 2 3 4 5 7 8 8 9 10 10 12 13 13 14 14 14 14 15 16 16 16 16 16 16 16 16 16 16 16 15 15 15 15 15
7 6 4 4 4 4 5 6 7 7 8 9 10 10 11 12 13 14 14 15 15 15 15 15 16 16 16 16 16 16 16 16 16 16 16 16 16 16
10 9 8 7 6 6 7 7 8 9 9 10 11 11 12 12 13 13 14 14 14 14 15 15 16 16 16 16 16 16 16 16 16 16 16 17 17 17
14 13 12 11 10 10 10 10 10 10 10 10 11 12 12 13 13 14 14 14 14 14 15 16 16 16 16 16 16 16 16 17 17 17 17 17 17 17
17 16 16 15 15 14 14 14 14 13 13 13 13 13 14 14 14 15 15 16 15 15 16 16 17 16 17 17 17 17 17 17 17 17 17 17 18 18